EN

Hourly Weather Lagoda

Today, 30 July, Friday

Time Temperature Precipitation Wind Pressure Humidity
00:00 +18°C° 0 mm 2 mps 752 mmHg 69%
01:00 +16°C° 0 mm 2 mps 752 mmHg 75%
02:00 +16°C° 0 mm 2 mps 752 mmHg 77%
03:00 +15°C° 0 mm 2 mps 752 mmHg 79%
04:00 +15°C° 0 mm 2 mps 752 mmHg 82%
05:00 +16°C° 0 mm 2 mps 752 mmHg 76%
06:00 +18°C° 0 mm 2 mps 752 mmHg 71%
07:00 +19°C° 0 mm 3 mps 752 mmHg 66%
08:00 +21°C° 0 mm 4 mps 752 mmHg 59%
09:00 +22°C° 0 mm 4 mps 752 mmHg 52%
10:00 +25°C° 0 mm 5 mps 751 mmHg 45%
11:00 +26°C° 0 mm 5 mps 751 mmHg 43%
12:00 +26°C° 0 mm 5 mps 751 mmHg 41%
13:00 +27°C° 0 mm 5 mps 751 mmHg 39%
14:00 +27°C° 0 mm 5 mps 751 mmHg 39%
15:00 +27°C° 0 mm 4 mps 750 mmHg 39%
16:00 +27°C° 0 mm 4 mps 750 mmHg 39%
17:00 +26°C° 0 mm 3 mps 750 mmHg 45%
18:00 +25°C° 0 mm 2 mps 750 mmHg 50%
19:00 +24°C° 0 mm 1 mps 749 mmHg 56%
20:00 +23°C° 0 mm 1 mps 749 mmHg 59%
21:00 +22°C° 0 mm 1 mps 749 mmHg 61%
22:00 +21°C° 0 mm 1 mps 749 mmHg 64%
23:00 +20°C° 0 mm 1 mps 749 mmHg 66%

Tomorrow, 31 July, Saturday

Time Temperature Precipitation Wind Pressure Humidity
00:00 +19°C° 0 mm 2 mps 749 mmHg 68%
01:00 +18°C° 0 mm 2 mps 749 mmHg 70%
02:00 +18°C° 0 mm 2 mps 749 mmHg 72%
03:00 +18°C° 0 mm 2 mps 749 mmHg 74%
04:00 +18°C° 0 mm 3 mps 748 mmHg 77%
05:00 +19°C° 0 mm 3 mps 749 mmHg 74%
06:00 +20°C° 0 mm 4 mps 749 mmHg 72%
07:00 +21°C° 0 mm 5 mps 749 mmHg 70%
08:00 +22°C° 0 mm 5 mps 749 mmHg 61%
09:00 +23°C° 0 mm 6 mps 749 mmHg 52%
10:00 +24°C° 0 mm 6 mps 749 mmHg 43%
11:00 +26°C° 0 mm 6 mps 749 mmHg 40%
12:00 +27°C° 0 mm 7 mps 749 mmHg 37%
13:00 +27°C° 0 mm 7 mps 749 mmHg 35%
14:00 +27°C° 0 mm 7 mps 749 mmHg 35%
15:00 +27°C° 0 mm 7 mps 749 mmHg 35%
16:00 +27°C° 0 mm 7 mps 749 mmHg 36%
17:00 +26°C° 0 mm 6 mps 749 mmHg 41%
18:00 +23°C° 0 mm 5 mps 750 mmHg 46%
19:00 +22°C° 0 mm 4 mps 750 mmHg 52%
20:00 +20°C° 0 mm 3 mps 750 mmHg 57%
21:00 +19°C° 0 mm 3 mps 750 mmHg 62%
22:00 +17°C° 0 mm 2 mps 751 mmHg 67%
23:00 +17°C° 0 mm 2 mps 751 mmHg 70%

Day after tomorrow, 1 August, Sunday

Time Temperature Precipitation Wind Pressure Humidity
00:00 +16°C° 0 mm 2 mps 751 mmHg 72%
01:00 +16°C° 0 mm 2 mps 751 mmHg 75%
02:00 +16°C° 0 mm 2 mps 751 mmHg 76%
03:00 +16°C° 0 mm 2 mps 751 mmHg 77%
04:00 +15°C° 0 mm 2 mps 751 mmHg 78%
05:00 +16°C° 0 mm 2 mps 751 mmHg 75%
06:00 +17°C° 0 mm 2 mps 751 mmHg 72%
07:00 +18°C° 0 mm 2 mps 750 mmHg 68%
08:00 +19°C° 0 mm 2 mps 751 mmHg 65%
09:00 +20°C° 0 mm 2 mps 751 mmHg 62%
10:00 +21°C° 0 mm 2 mps 751 mmHg 59%
11:00 +23°C° 0 mm 2 mps 751 mmHg 54%
12:00 +24°C° 0 mm 2 mps 750 mmHg 49%
13:00 +26°C° 0 mm 3 mps 750 mmHg 44%
14:00 +25°C° 0 mm 3 mps 750 mmHg 45%
15:00 +25°C° 0 mm 3 mps 750 mmHg 46%
16:00 +25°C° 0 mm 2 mps 750 mmHg 47%
17:00 +24°C° 0 mm 2 mps 750 mmHg 51%
18:00 +23°C° 0 mm 2 mps 750 mmHg 56%
19:00 +21°C° 0 mm 2 mps 750 mmHg 60%
20:00 +20°C° 0 mm 2 mps 750 mmHg 64%
21:00 +20°C° 0 mm 1 mps 750 mmHg 68%
22:00 +19°C° 0 mm 1 mps 750 mmHg 72%
23:00 +18°C° 0 mm 1 mps 750 mmHg 74%

2 August, Monday

Time Temperature Precipitation Wind Pressure Humidity
00:00 +18°C° 0 mm 1 mps 750 mmHg 75%
01:00 +18°C° 0 mm 1 mps 750 mmHg 76%
02:00 +17°C° 0 mm 2 mps 750 mmHg 78%
03:00 +16°C° 0 mm 2 mps 750 mmHg 81%
04:00 +16°C° 0 mm 2 mps 750 mmHg 83%
05:00 +17°C° 0 mm 2 mps 751 mmHg 79%
06:00 +18°C° 0 mm 3 mps 751 mmHg 76%
07:00 +18°C° 0 mm 3 mps 751 mmHg 73%
08:00 +20°C° 0.1 mm 4 mps 751 mmHg 68%
09:00 +21°C° 0.1 mm 4 mps 752 mmHg 63%
10:00 +22°C° 0.1 mm 5 mps 752 mmHg 57%
11:00 +22°C° 0.4 mm 5 mps 752 mmHg 59%
12:00 +21°C° 0.4 mm 5 mps 752 mmHg 61%
13:00 +21°C° 0.4 mm 4 mps 752 mmHg 63%
14:00 +21°C° 0.2 mm 4 mps 753 mmHg 61%
15:00 +21°C° 0.2 mm 4 mps 753 mmHg 59%
16:00 +22°C° 0.2 mm 4 mps 753 mmHg 56%
17:00 +21°C° 0.2 mm 3 mps 753 mmHg 60%
18:00 +20°C° 0.2 mm 3 mps 753 mmHg 64%
19:00 +19°C° 0.2 mm 2 mps 753 mmHg 68%
20:00 +18°C° 0 mm 2 mps 754 mmHg 70%
21:00 +18°C° 0 mm 1 mps 754 mmHg 72%
22:00 +16°C° 0 mm 1 mps 754 mmHg 74%
23:00 +16°C° 0 mm 1 mps 754 mmHg 75%

3 August, Tuesday

Time Temperature Precipitation Wind Pressure Humidity
00:00 +15°C° 0 mm 1 mps 755 mmHg 75%
01:00 +15°C° 0 mm 1 mps 755 mmHg 76%
02:00 +15°C° 0 mm 1 mps 755 mmHg 78%
03:00 +15°C° 0 mm 1 mps 755 mmHg 79%
04:00 +15°C° 0 mm 1 mps 755 mmHg 81%
05:00 +16°C° 0 mm 1 mps 755 mmHg 76%
06:00 +18°C° 0 mm 1 mps 755 mmHg 72%
07:00 +19°C° 0 mm 1 mps 755 mmHg 67%
08:00 +21°C° 0 mm 1 mps 755 mmHg 61%
09:00 +21°C° 0 mm 2 mps 755 mmHg 54%
10:00 +24°C° 0 mm 2 mps 755 mmHg 48%
11:00 +24°C° 0.1 mm 2 mps 754 mmHg 49%
12:00 +24°C° 0.1 mm 2 mps 754 mmHg 50%
13:00 +24°C° 0.1 mm 2 mps 754 mmHg 51%
14:00 +25°C° 0.1 mm 2 mps 754 mmHg 51%
15:00 +25°C° 0.1 mm 2 mps 753 mmHg 51%
16:00 +25°C° 0.1 mm 2 mps 753 mmHg 52%
17:00 +24°C° 0.5 mm 2 mps 753 mmHg 59%
18:00 +21°C° 0.5 mm 2 mps 753 mmHg 67%
19:00 +20°C° 0.5 mm 2 mps 753 mmHg 74%
20:00 +19°C° 0.9 mm 2 mps 753 mmHg 79%
21:00 +18°C° 0.9 mm 3 mps 753 mmHg 84%
22:00 +17°C° 0.9 mm 3 mps 753 mmHg 88%
23:00 +17°C° 1.4 mm 3 mps 753 mmHg 91%

4 August, Wednesday

Time Temperature Precipitation Wind Pressure Humidity
00:00 +17°C° 1.4 mm 3 mps 752 mmHg 93%
01:00 +16°C° 1.4 mm 2 mps 752 mmHg 95%
02:00 +16°C° 0.7 mm 2 mps 752 mmHg 95%
03:00 +16°C° 0.7 mm 2 mps 752 mmHg 95%
04:00 +16°C° 0.7 mm 3 mps 752 mmHg 95%
05:00 +16°C° 0.1 mm 3 mps 752 mmHg 94%
06:00 +16°C° 0.1 mm 3 mps 752 mmHg 93%
07:00 +16°C° 0.1 mm 3 mps 752 mmHg 93%
08:00 +17°C° 0 mm 3 mps 753 mmHg 87%
09:00 +18°C° 0 mm 3 mps 753 mmHg 81%
10:00 +19°C° 0 mm 4 mps 753 mmHg 75%
11:00 +20°C° 0 mm 4 mps 753 mmHg 69%
12:00 +21°C° 0 mm 4 mps 752 mmHg 64%
13:00 +21°C° 0 mm 3 mps 752 mmHg 58%
14:00 +22°C° 0 mm 3 mps 752 mmHg 56%
15:00 +22°C° 0 mm 3 mps 752 mmHg 54%
16:00 +22°C° 0 mm 3 mps 752 mmHg 52%
17:00 +21°C° 0 mm 3 mps 752 mmHg 57%
18:00 +20°C° 0 mm 2 mps 752 mmHg 63%
19:00 +19°C° 0 mm 2 mps 752 mmHg 68%
20:00 +19°C° 0 mm 1 mps 751 mmHg 72%
21:00 +18°C° 0 mm 1 mps 751 mmHg 76%
22:00 +15°C° 0 mm 0 mps 751 mmHg 79%
23:00 +16°C° 0 mm 1 mps 751 mmHg 80%
Show more